K8JWL-13 Weather Reports


time (UTC)temp
F
wind
direction
speed
knots
gust
knots
rain 1hr
in
rain 24hr
in
rain mn
in
humidity
%
barometer
mb
20260507010244 53 17 0.0 0.0 158.78 0.00 0.28 67 1014.6
20260507005745 53 17 0.0 0.0 158.78 0.00 0.28 67 1014.5
20260507005244 54 17 0.0 0.0 158.78 0.00 0.28 66 1014.4
20260507004744 54 17 0.0 0.0 158.78 0.00 0.28 66 1014.4
20260507004245 54 17 0.0 0.0 158.78 0.00 0.28 65 1014.3
20260507003744 54 17 0.0 0.0 158.78 0.00 0.28 64 1014.3
20260507002745 54 17 0.0 0.0 158.78 0.00 0.28 62 1014.2
20260507002244 54 17 0.0 0.0 158.78 0.00 0.28 62 1014.1
20260507001744 54 311 0.0 0.0 158.78 0.00 0.28 62 1014.1
20260507001244 54 311 0.0 0.0 158.78 0.00 0.28 62 1014.0
20260507000246 55 311 0.0 0.0 158.78 0.00 0.28 58 1014.0
20260506235744 55 311 0.0 0.0 158.78 0.00 0.28 57 1014.1
20260506235244 55 8 0.0 0.0 158.78 0.00 0.28 57 1014.1
20260506234744 55 8 0.0 0.0 158.78 0.00 0.28 56 1013.9
20260506234244 55 8 0.0 0.0 158.78 0.00 0.28 56 1013.9
20260506233744 55 35 0.0 0.0 158.78 0.00 0.28 56 1013.9
20260506233244 55 329 1.7 0.0 158.78 0.00 0.28 56 1013.8
20260506232744 55 283 1.7 0.0 158.78 0.00 0.28 56 1014.0
20260506232244 55 11 0.0 0.0 158.78 0.00 0.28 56 1014.0
20260506231744 55 343 1.7 0.0 158.78 0.00 0.28 55 1014.1
20260506230744 55 31 1.7 0.0 158.78 0.00 0.28 53 1014.3
20260506230244 56 298 0.0 0.0 158.78 0.00 0.28 52 1014.3
20260506225744 56 336 0.9 0.0 158.78 0.00 0.28 52 1014.3
20260506225244 56 340 3.5 0.0 158.78 0.00 0.28 53 1014.3
20260506224744 56 325 2.6 0.0 158.78 0.00 0.28 52 1014.4
20260506224244 56 316 2.6 0.0 158.78 0.00 0.28 51 1014.4
20260506223744 56 24 3.5 0.0 158.78 0.00 0.28 52 1014.3
20260506223244 56 284 7.0 0.0 158.78 0.00 0.28 53 1014.2
20260506222744 56 273 3.5 0.0 158.78 0.00 0.28 53 1014.3
20260506222244 56 7 2.6 0.0 158.78 0.00 0.28 55 1014.3
20260506221744 56 34 1.7 0.0 158.78 0.00 0.28 53 1014.3
20260506221244 56 333 0.9 0.0 158.78 0.00 0.28 53 1014.2
20260506220744 56 339 3.5 0.0 158.78 0.00 0.28 52 1014.1
20260506220244 56 353 3.5 0.0 158.78 0.00 0.28 52 1014.1
20260506215744 56 302 3.5 0.0 158.78 0.00 0.28 52 1014.0
20260506215244 57 63 0.9 0.0 158.78 0.00 0.28 53 1013.9
20260506214244 57 300 1.7 0.0 158.78 0.00 0.28 53 1013.7
20260506213744 57 97 1.7 0.0 158.78 0.00 0.28 53 1013.6
20260506213244 57 4 3.5 0.0 158.78 0.00 0.28 55 1013.6
20260506212747 57 21 2.6 0.0 158.78 0.00 0.28 53 1013.6
20260506212244 57 345 3.5 0.0 158.78 0.00 0.28 53 1013.6
20260506211744 57 24 2.6 0.0 158.78 0.00 0.28 51 1013.6
20260506211245 57 328 4.3 0.0 158.78 0.00 0.28 52 1013.6
20260506210744 57 8 3.5 0.0 158.78 0.00 0.28 53 1013.6
20260506210244 57 300 3.5 0.0 158.78 0.00 0.28 52 1013.6
20260506205745 57 323 4.3 0.0 158.78 0.00 0.28 52 1013.7
20260506205246 57 353 4.3 0.0 158.78 0.00 0.28 52 1013.6
20260506204745 57 3 1.7 0.0 158.78 0.00 0.28 53 1013.6
20260506203745 57 31 5.2 0.0 158.78 0.00 0.28 50 1013.5
20260506203246 57 298 4.3 0.0 158.78 0.00 0.28 52 1013.4
20260506202746 57 17 2.6 0.0 158.78 0.00 0.28 50 1013.3
20260506202245 57 300 4.3 0.0 158.78 0.00 0.28 50 1013.3
20260506201745 57 4 2.6 0.0 158.78 0.00 0.28 51 1013.4
20260506201244 57 14 7.0 0.0 158.78 0.00 0.28 51 1013.3
20260506195744 57 277 3.5 0.0 158.78 0.00 0.28 52 1013.3
20260506195244 57 321 1.7 0.0 158.78 0.00 0.28 53 1013.3
20260506194746 57 340 1.7 0.0 158.78 0.00 0.28 53 1013.5
20260506194244 57 66 2.6 0.0 158.78 0.00 0.28 52 1013.5
20260506193744 57 340 3.5 0.0 158.78 0.00 0.28 52 1013.5
20260506193244 57 13 5.2 0.0 158.78 0.00 0.28 52 1013.6
20260506192244 57 17 0.0 0.0 158.78 0.00 0.28 53 1013.5
20260506191744 57 260 2.6 0.0 158.78 0.00 0.28 52 1013.5
20260506190744 57 301 1.7 0.0 158.78 0.00 0.28 50 1013.5
20260506190244 57 359 6.1 0.0 158.78 0.00 0.28 49 1013.3
20260506185744 58 3 5.2 0.0 158.78 0.00 0.28 49 1013.2
20260506185244 58 356 2.6 0.0 158.78 0.00 0.28 52 1013.2
20260506184744 58 34 4.3 0.0 158.78 0.00 0.28 50 1013.2
20260506184244 59 20 6.1 0.0 158.78 0.00 0.28 50 1013.3
20260506183744 59 359 7.0 0.0 158.78 0.00 0.28 53 1013.4
20260506183244 59 7 6.1 0.0 158.78 0.00 0.28 51 1013.4
20260506182744 59 13 6.1 0.0 158.78 0.00 0.28 54 1013.3
20260506182502 59 46 2.6 0.0 158.78 0.00 0.28 51 1013.6
20260506182244 59 20 3.5 0.0 158.78 0.00 0.28 53 1013.3
20260506181744 59 46 2.6 0.0 158.78 0.00 0.28 51 1013.6
20260506181244 59 315 8.7 0.0 158.78 0.00 0.28 52 1013.5
20260506180744 59 15 1.7 0.0 158.78 0.00 0.28 49 1013.4
20260506180244 59 326 7.0 0.0 158.78 0.00 0.28 50 1013.4
20260506175744 59 312 3.5 0.0 158.78 0.00 0.28 52 1013.4
20260506175244 59 278 4.3 0.0 158.78 0.00 0.28 50 1013.3
20260506174744 59 3 6.1 0.0 158.78 0.00 0.28 53 1013.4
20260506174244 58 346 5.2 0.0 158.78 0.00 0.28 52 1013.4
20260506173744 58 316 4.3 0.0 158.78 0.00 0.28 53 1013.3
20260506173632 58 356 5.2 0.0 158.78 0.00 0.28 52 1013.4
20260506173245 58 356 5.2 0.0 158.78 0.00 0.28 52 1013.4
20260506172244 58 340 5.2 0.0 158.78 0.00 0.28 55 1013.4
20260506171744 57 359 2.6 0.0 158.78 0.00 0.28 52 1013.3
20260506171244 57 346 7.0 0.0 158.78 0.00 0.28 52 1013.3
20260506170244 57 333 2.6 0.0 158.78 0.00 0.28 58 1013.2
20260506165955 57 269 7.0 0.0 158.78 0.00 0.28 61 1013.3
20260506165744 57 269 7.0 0.0 158.78 0.00 0.28 61 1013.3
20260506165244 57 332 5.2 0.0 158.78 0.00 0.28 58 1013.4
20260506164744 57 349 2.6 0.0 158.78 0.00 0.28 60 1013.4
20260506164244 56 336 0.9 0.0 158.78 0.00 0.28 58 1013.5
20260506163744 56 4 4.3 0.0 158.78 0.00 0.28 63 1013.4
20260506163246 56 1 2.6 0.0 158.78 0.00 0.28 62 1013.3
20260506162744 56 10 8.7 0.0 158.78 0.00 0.28 63 1013.2
20260506162243 56 13 1.7 0.0 158.78 0.00 0.28 65 1013.3
20260506161744 55 359 7.0 0.0 158.78 0.00 0.28 62 1013.5
20260506161539 55 325 5.2 0.0 158.78 0.00 0.28 65 1013.4
20260506161244 55 325 5.2 0.0 158.78 0.00 0.28 65 1013.4
20260506160744 55 69 1.7 0.0 158.78 0.00 0.28 64 1013.4
20260506160243 54 315 4.3 0.0 158.78 0.00 0.28 64 1013.3
20260506155745 54 315 5.2 0.0 158.78 0.00 0.28 65 1013.1
20260506155243 54 359 5.2 0.0 158.78 0.00 0.28 69 1013.1
20260506154744 54 14 4.3 0.0 158.78 0.00 0.28 65 1013.2
20260506154244 54 332 0.9 0.0 158.78 0.00 0.28 68 1013.0
20260506153744 53 84 2.6 0.0 158.78 0.00 0.28 68 1012.9
20260506153244 53 352 2.6 0.0 158.78 0.00 0.28 70 1012.8
20260506152744 53 338 5.2 0.0 158.78 0.00 0.28 69 1012.7
20260506152244 53 307 6.1 0.0 158.78 0.00 0.28 69 1012.8
20260506151744 53 27 1.7 0.0 158.78 0.00 0.28 69 1012.7
20260506151244 52 18 0.9 0.0 158.78 0.00 0.28 69 1012.6
20260506150744 52 30 3.5 0.0 158.78 0.00 0.28 69 1012.7
20260506150243 52 297 3.5 0.0 158.78 0.00 0.28 68 1012.6
20260506145244 52 281 2.6 0.0 158.78 0.00 0.28 70 1012.7
20260506144743 52 346 1.7 0.0 158.78 0.00 0.28 68 1012.7
20260506144509 52 321 1.7 0.0 158.78 0.00 0.28 73 1012.6
20260506144244 52 321 1.7 0.0 158.78 0.00 0.28 73 1012.6
20260506143744 51 319 3.5 0.0 158.78 0.00 0.28 71 1012.6
20260506143243 51 17 0.0 0.0 158.78 0.00 0.28 70 1012.6
20260506142744 51 359 2.6 0.0 158.78 0.00 0.28 69 1012.3
20260506142243 51 8 0.9 0.0 158.78 0.00 0.28 72 1012.3
20260506141743 51 359 6.1 0.0 158.78 0.00 0.28 74 1012.1
20260506141244 50 308 7.8 0.0 158.78 0.00 0.28 75 1012.1
20260506140745 50 14 5.2 0.0 158.78 0.00 0.28 76 1011.9
20260506140243 50 322 4.3 0.0 158.78 0.00 0.28 76 1011.9
20260506135744 50 328 0.9 0.0 158.78 0.00 0.28 78 1011.9
20260506135243 50 21 3.5 0.0 158.78 0.00 0.28 78 1011.8
20260506134743 49 352 1.7 0.0 158.78 0.00 0.28 78 1011.7
20260506134244 49 204 1.7 0.0 158.78 0.00 0.28 82 1011.6
20260506133743 49 311 1.7 0.0 158.78 0.00 0.28 81 1011.7
20260506133245 49 20 2.6 0.0 158.78 0.00 0.28 82 1011.8
20260506132744 49 28 3.5 0.0 158.78 0.00 0.28 82 1011.7
20260506131745 48 38 4.3 0.0 158.78 0.00 0.28 84 1011.8
20260506131244 48 349 1.7 0.0 158.78 0.00 0.28 84 1011.7
20260506130743 48 34 4.3 0.0 158.78 0.00 0.28 84 1011.7
20260506130243 48 14 3.5 0.0 158.78 0.00 0.28 86 1011.7
20260506125744 47 359 0.9 0.0 158.78 0.00 0.28 86 1011.7
20260506125243 47 350 0.9 0.0 158.78 0.00 0.28 86 1011.7
20260506124743 47 11 1.7 0.0 158.78 0.00 0.28 86 1011.5
20260506124327 47 352 0.9 0.0 158.78 0.00 0.28 87 1011.5
20260506124244 47 352 0.9 0.0 158.78 0.00 0.28 87 1011.5
20260506123743 47 311 2.6 0.0 158.78 0.00 0.28 87 1011.5
20260506123243 47 236 0.9 0.0 158.78 0.00 0.28 88 1011.3
20260506122743 47 13 2.6 0.0 158.78 0.00 0.28 87 1011.1
20260506122243 47 46 0.9 0.0 158.78 0.00 0.28 89 1011.1
20260506121743 47 349 2.6 0.0 158.78 0.00 0.28 89 1011.1
20260506121243 47 323 1.7 0.0 158.78 0.00 0.28 89 1010.9
20260506120743 47 66 2.6 0.0 158.78 0.00 0.28 89 1010.8
20260506120243 47 60 1.7 0.0 158.78 0.00 0.28 90 1010.8
20260506115316 47 53 3.5 0.0 158.78 0.00 0.28 91 1010.5
20260506115243 46 25 0.0 0.0 158.78 0.00 0.28 90 1010.8
20260506114743 47 345 3.5 0.0 158.78 0.00 0.28 91 1010.8
20260506114244 47 53 3.5 0.0 158.78 0.00 0.28 91 1010.5
20260506113846 46 25 2.6 0.0 158.78 0.00 0.28 91 1010.1
20260506113430 46 7 2.6 0.0 158.78 0.00 0.28 91 1010.1
20260506113243 46 25 2.6 0.0 158.78 0.00 0.28 91 1010.1
20260506112243 46 7 2.6 0.0 158.78 0.00 0.28 91 1010.1
20260506111743 46 27 3.5 0.0 158.78 0.00 0.28 91 1009.6
20260506111651 46 4 7.0 0.0 158.78 0.00 0.28 93 1009.6
20260506111243 46 4 7.0 0.0 158.78 0.00 0.28 93 1009.6
20260506110743 46 34 0.9 0.0 158.78 0.00 0.28 93 1009.9
20260506110243 47 1 4.3 0.0 158.78 0.00 0.28 94 1009.3
20260506105744 47 345 5.2 0.0 158.78 0.00 0.28 94 1009.7
20260506105244 47 10 4.3 0.0 158.78 0.00 0.28 94 1009.9
20260506104743 47 7 7.0 0.0 158.78 0.00 0.28 94 1010.1
20260506103743 47 350 1.7 0.0 158.78 0.00 0.28 95 1009.6
20260506103505 47 8 4.3 0.0 158.78 0.00 0.28 95 1009.5
20260506103244 47 42 5.2 0.0 158.78 0.00 0.28 95 1009.1
20260506102743 47 42 5.2 0.0 158.78 0.00 0.28 95 1009.1
20260506102329 47 38 7.8 0.0 158.78 0.00 0.28 95 1009.6
20260506102243 47 138 0.9 0.0 158.78 0.00 0.28 95 1009.3
20260506101743 47 38 7.8 0.0 158.78 0.00 0.28 95 1009.6
20260506101712 47 343 0.0 0.0 158.78 0.00 0.28 95 1009.5
20260506101243 47 278 3.5 0.0 158.78 0.00 0.28 95 1009.8
20260506100743 47 343 0.0 0.0 158.78 0.00 0.28 95 1009.5
20260506100243 47 345 4.3 0.0 158.78 0.00 0.28 95 1009.0
20260506095743 48 340 5.2 0.0 158.78 0.00 0.28 95 1009.0
20260506095243 47 290 0.0 0.0 158.78 0.00 0.28 95 1008.6
20260506094852 47 39 0.0 0.0 158.78 0.00 0.28 95 1008.8
20260506094747 47 39 0.0 0.0 158.78 0.00 0.28 95 1008.8
20260506093857 47 23 0.0 0.0 158.78 0.00 0.28 95 1008.2
20260506093743 47 23 0.0 0.0 158.78 0.00 0.28 95 1008.2
20260506093243 47 11 3.5 0.0 158.78 0.00 0.28 95 1008.5
20260506092743 47 172 0.0 0.0 158.78 0.00 0.28 95 1008.3
20260506092243 47 172 0.0 0.0 158.78 0.00 0.28 95 1008.3
20260506091743 47 11 2.6 0.0 158.78 0.00 0.28 95 1008.2
20260506091607 47 51 1.7 0.0 158.78 0.00 0.28 95 1008.3
20260506091243 47 51 1.7 0.0 158.78 0.00 0.28 95 1008.3
20260506091006 47 37 4.3 0.0 158.78 0.00 0.28 95 1008.5
20260506090752 47 7 1.7 0.0 158.78 0.00 0.28 95 1008.3
20260506090743 47 37 4.3 0.0 158.78 0.00 0.28 95 1008.5
20260506090243 47 7 1.7 0.0 158.78 0.00 0.28 95 1008.3
20260506085743 47 41 2.6 0.0 158.78 0.00 0.28 95 1008.5
20260506084743 47 359 6.1 0.0 158.77 0.00 0.27 95 1008.5
20260506084243 47 335 3.5 0.0 158.77 0.00 0.27 95 1008.7
20260506083743 47 359 3.5 0.0 158.76 0.00 0.26 95 1008.8
20260506083243 47 297 0.0 0.0 158.76 0.00 0.26 95 1008.8
20260506082830 47 25 5.2 0.0 158.75 0.00 0.25 95 1008.8
20260506082743 47 25 5.2 0.0 158.75 0.00 0.25 95 1008.8
20260506082243 47 31 6.1 0.0 158.75 0.00 0.25 95 1008.7
20260506081743 47 356 5.2 0.0 158.75 0.00 0.25 95 1008.6
20260506080743 47 10 1.7 0.0 158.73 0.00 0.23 95 1008.7
20260506080741 47 28 1.7 0.0 158.71 0.00 0.21 95 1008.6
20260506080243 47 28 1.7 0.0 158.71 0.00 0.21 95 1008.6
20260506072743 48 10 4.3 0.0 158.70 0.00 0.20 95 1008.1
20260506072243 47 343 3.5 0.0 158.69 0.00 0.19 95 1007.9
20260506071743 48 31 5.2 0.0 158.69 0.00 0.19 95 1008.2
20260506071243 48 357 5.2 0.0 158.69 0.00 0.19 95 1008.4
20260506070743 48 359 3.5 0.0 158.69 0.00 0.19 95 1008.4
20260506070244 48 356 0.9 0.0 158.68 0.00 0.18 95 1008.3
20260506070216 48 346 1.7 0.0 158.67 0.00 0.17 95 1008.2
20260506062243 48 41 0.0 0.0 158.64 0.00 0.14 94 1008.2
20260506061743 48 340 7.0 0.0 158.63 0.00 0.13 94 1008.2
20260506061247 48 325 3.5 0.0 158.62 0.00 0.12 94 1008.3
20260506060743 48 17 2.6 0.0 158.62 0.00 0.12 94 1008.3
20260506060243 48 132 4.3 0.0 158.61 0.00 0.11 94 1008.4
20260506051243 49 34 1.7 0.0 158.56 0.00 0.06 94 1008.3
20260506050742 49 28 3.5 0.0 158.56 0.00 0.06 94 1008.4
20260506050243 49 28 4.3 0.0 158.56 0.00 0.06 94 1008.5
20260506050135 50 7 2.6 0.0 158.54 0.00 0.04 94 1008.7
20260506044742 50 342 4.3 0.0 158.53 0.00 0.03 94 1008.8
20260506044553 50 290 4.3 0.0 158.50 0.00 0.00 94 1008.8
20260506044244 50 297 5.2 0.0 158.52 0.00 0.02 94 1008.8
20260506043742 50 290 4.3 0.0 158.50 0.00 0.00 94 1008.8
20260506042626 50 1 2.6 0.0 158.50 0.00 1.00 94 1008.6
20260506042243 50 1 2.6 0.0 158.50 0.00 1.00 94 1008.6
20260506042223 50 13 4.3 0.0 158.50 0.00 1.00 94 1008.4
20260506041742 50 13 4.3 0.0 158.50 0.00 1.00 94 1008.4
20260506040743 50 82 0.0 0.0 158.50 0.00 1.00 94 1008.4
20260506040540 50 4 3.5 0.0 158.50 0.00 1.00 94 1008.4
20260506040506 50 66 0.9 0.0 158.50 0.00 1.00 94 1008.4
20260506040243 50 4 3.5 0.0 158.50 0.00 1.00 94 1008.4
20260506035811 50 37 3.5 0.0 158.50 0.00 1.00 94 1008.4
20260506035743 50 66 0.9 0.0 158.50 0.00 1.00 94 1008.4
20260506035243 50 37 3.5 0.0 158.50 0.00 1.00 94 1008.4
20260506034742 50 7 0.0 0.0 158.50 0.00 1.00 94 1008.6
20260506034547 50 8 0.0 0.0 158.49 0.00 0.99 94 1008.6
20260506034243 50 8 0.0 0.0 158.49 0.00 0.99 94 1008.6
20260506034217 50 309 1.7 0.0 158.49 0.00 0.99 94 1008.6
20260506033742 50 309 1.7 0.0 158.49 0.00 0.99 94 1008.6
20260506033242 50 10 5.2 0.0 158.49 0.00 0.99 93 1008.7
20260506032933 50 359 2.6 0.0 158.48 0.00 0.98 93 1008.9
20260506032744 50 23 5.2 0.0 158.48 0.00 0.98 94 1008.9
20260506032243 50 359 2.6 0.0 158.48 0.00 0.98 93 1008.9
20260506031742 50 343 5.2 0.0 158.47 0.00 0.97 93 1009.1
20260506031243 51 7 5.2 0.0 158.46 0.00 0.96 93 1009.1
20260506030742 51 311 4.3 0.0 158.45 0.00 0.95 93 1009.2
20260506030243 51 326 1.7 0.0 158.44 0.00 0.94 93 1009.2
20260506030106 51 342 2.6 0.0 158.42 0.00 0.92 93 1009.3
20260506025743 51 342 2.6 0.0 158.42 0.00 0.92 93 1009.3
20260506025243 51 226 1.7 0.0 158.41 0.00 0.91 93 1009.5
20260506024742 51 23 7.0 0.0 158.41 0.00 0.91 93 1009.5
20260506024332 52 7 2.6 0.0 158.38 0.00 0.88 93 1009.5
20260506024243 52 83 1.7 0.0 158.39 0.00 0.89 93 1009.5
20260506023743 52 7 2.6 0.0 158.38 0.00 0.88 93 1009.5
20260506023710 52 1 0.9 0.0 158.37 0.00 0.87 93 1009.5
20260506023306 52 308 0.9 0.0 158.36 0.00 0.86 93 1009.1
20260506023243 52 1 0.9 0.0 158.37 0.00 0.87 93 1009.5
20260506022743 52 45 3.5 0.0 158.37 0.00 0.87 93 1009.2
20260506022244 52 308 0.9 0.0 158.36 0.00 0.86 93 1009.1
20260506021742 52 342 2.6 0.0 158.36 0.00 0.86 93 1009.1
20260506021430 53 35 3.5 0.0 158.35 0.00 0.85 92 1009.1
20260506021243 53 35 3.5 0.0 158.35 0.00 0.85 92 1009.1
20260506020743 53 11 0.9 0.0 158.34 0.00 0.84 92 1009.1
20260506020242 53 3 0.0 0.0 158.32 0.00 0.82 92 1009.0
20260506015743 53 343 2.6 0.0 158.30 0.00 0.80 92 1009.0
20260506015242 53 69 6.1 0.0 158.28 0.00 0.78 91 1009.1
20260506014243 54 350 4.3 0.0 158.25 0.00 0.75 91 1009.1
20260506013742 54 8 2.6 0.0 158.22 0.00 0.72 91 1009.1
20260506013242 55 20 3.5 0.0 158.21 0.00 0.71 91 1008.9
20260506012743 56 31 2.6 0.0 158.19 0.00 0.69 91 1008.6
20260506012243 56 274 2.6 0.0 158.18 0.00 0.68 91 1008.6
20260506011743 57 318 0.9 0.0 158.14 0.00 0.64 91 1008.5
20260506011243 58 252 6.1 0.0 158.10 0.00 0.60 91 1008.0
20260506010742 59 300 6.1 0.0 158.06 0.00 0.56 91 1008.5